Previsão horária em Pliszka

Hoje, 27 Fevereiro, Sábado

Tempo Temperatura Precipitação Vento Pressão Humidade
00:00 +3°C° 0 mm 3 m/s 766 mmHg 90%
01:00 +2°C° 0 mm 3 m/s 767 mmHg 92%
02:00 +2°C° 0 mm 3 m/s 767 mmHg 93%
03:00 +2°C° 0 mm 3 m/s 767 mmHg 94%
04:00 +1°C° 0 mm 3 m/s 767 mmHg 95%
05:00 +1°C° 0 mm 3 m/s 767 mmHg 95%
06:00 +1°C° 0 mm 4 m/s 767 mmHg 94%
07:00 +1°C° 0 mm 4 m/s 768 mmHg 94%
08:00 +1°C° 0 mm 4 m/s 768 mmHg 92%
09:00 +1°C° 0 mm 4 m/s 769 mmHg 90%
10:00 +3°C° 0 mm 3 m/s 769 mmHg 88%
11:00 +3°C° 0 mm 3 m/s 769 mmHg 86%
12:00 +4°C° 0 mm 3 m/s 770 mmHg 84%
13:00 +4°C° 0 mm 3 m/s 770 mmHg 81%
14:00 +4°C° 0 mm 3 m/s 770 mmHg 81%
15:00 +5°C° 0 mm 3 m/s 770 mmHg 80%
16:00 +5°C° 0 mm 3 m/s 770 mmHg 80%
17:00 +4°C° 0 mm 3 m/s 770 mmHg 83%
18:00 +4°C° 0 mm 3 m/s 770 mmHg 86%
19:00 +3°C° 0 mm 3 m/s 770 mmHg 89%
20:00 +3°C° 0 mm 3 m/s 770 mmHg 91%
21:00 +3°C° 0 mm 2 m/s 770 mmHg 93%
22:00 +3°C° 0 mm 2 m/s 770 mmHg 95%
23:00 +2°C° 0 mm 2 m/s 770 mmHg 95%

Amanhã, 28 Fevereiro, Domingo

Tempo Temperatura Precipitação Vento Pressão Humidade
00:00 +2°C° 0 mm 2 m/s 771 mmHg 94%
01:00 +2°C° 0 mm 2 m/s 771 mmHg 94%
02:00 +2°C° 0 mm 2 m/s 770 mmHg 95%
03:00 +1°C° 0 mm 2 m/s 770 mmHg 95%
04:00 +1°C° 0 mm 2 m/s 769 mmHg 96%
05:00 +1°C° 0 mm 2 m/s 769 mmHg 96%
06:00 +1°C° 0 mm 2 m/s 769 mmHg 97%
07:00 +1°C° 0 mm 2 m/s 769 mmHg 97%
08:00 +1°C° 0 mm 3 m/s 769 mmHg 94%
09:00 +2°C° 0 mm 3 m/s 769 mmHg 90%
10:00 +3°C° 0 mm 3 m/s 769 mmHg 87%
11:00 +5°C° 0 mm 3 m/s 769 mmHg 83%
12:00 +7°C° 0 mm 3 m/s 769 mmHg 79%
13:00 +8°C° 0 mm 3 m/s 769 mmHg 75%
14:00 +9°C° 0 mm 3 m/s 769 mmHg 74%
15:00 +9°C° 0 mm 3 m/s 768 mmHg 74%
16:00 +9°C° 0 mm 3 m/s 768 mmHg 73%
17:00 +8°C° 0 mm 2 m/s 768 mmHg 79%
18:00 +7°C° 0 mm 2 m/s 769 mmHg 85%
19:00 +6°C° 0 mm 1 m/s 769 mmHg 90%
20:00 +6°C° 0 mm 1 m/s 769 mmHg 91%
21:00 +5°C° 0 mm 1 m/s 769 mmHg 92%
22:00 +5°C° 0 mm 1 m/s 769 mmHg 93%
23:00 +3°C° 0 mm 0 m/s 769 mmHg 93%

Depois de amanhã, 1 Março, Segunda-feira

Tempo Temperatura Precipitação Vento Pressão Humidade
00:00 +3°C° 0 mm 0 m/s 770 mmHg 93%
01:00 +3°C° 0 mm 0 m/s 770 mmHg 93%
02:00 +3°C° 0 mm 0 m/s 770 mmHg 93%
03:00 +2°C° 0 mm 0 m/s 770 mmHg 93%
04:00 +2°C° 0 mm 0 m/s 769 mmHg 93%
05:00 +2°C° 0 mm 0 m/s 770 mmHg 93%
06:00 +2°C° 0 mm 0 m/s 770 mmHg 93%
07:00 +2°C° 0 mm 0 m/s 770 mmHg 93%
08:00 +3°C° 0 mm 0 m/s 770 mmHg 88%
09:00 +5°C° 0 mm 0 m/s 770 mmHg 82%
10:00 +7°C° 0 mm 0 m/s 770 mmHg 76%
11:00 +9°C° 0 mm 1 m/s 770 mmHg 70%
12:00 +10°C° 0 mm 1 m/s 770 mmHg 64%
13:00 +12°C° 0 mm 1 m/s 770 mmHg 58%
14:00 +12°C° 0 mm 1 m/s 770 mmHg 58%
15:00 +12°C° 0 mm 1 m/s 769 mmHg 58%
16:00 +12°C° 0 mm 1 m/s 769 mmHg 58%
17:00 +11°C° 0 mm 1 m/s 769 mmHg 64%
18:00 +8°C° 0 mm 0 m/s 769 mmHg 69%
19:00 +7°C° 0 mm 0 m/s 769 mmHg 75%
20:00 +6°C° 0 mm 0 m/s 769 mmHg 77%
21:00 +6°C° 0 mm 0 m/s 769 mmHg 78%
22:00 +5°C° 0 mm 0 m/s 769 mmHg 80%
23:00 +6°C° 0 mm 1 m/s 769 mmHg 81%

2 Março, Terça-feira

Tempo Temperatura Precipitação Vento Pressão Humidade
00:00 +6°C° 0 mm 1 m/s 769 mmHg 82%
01:00 +5°C° 0 mm 1 m/s 769 mmHg 82%
02:00 +5°C° 0 mm 1 m/s 769 mmHg 82%
03:00 +5°C° 0 mm 1 m/s 769 mmHg 82%
04:00 +4°C° 0 mm 1 m/s 769 mmHg 83%
05:00 +4°C° 0 mm 1 m/s 768 mmHg 83%
06:00 +4°C° 0 mm 1 m/s 768 mmHg 84%
07:00 +3°C° 0 mm 0 m/s 768 mmHg 85%
08:00 +5°C° 0 mm 1 m/s 769 mmHg 78%
09:00 +7°C° 0 mm 1 m/s 769 mmHg 71%
10:00 +9°C° 0 mm 1 m/s 769 mmHg 64%
11:00 +10°C° 0 mm 0 m/s 769 mmHg 59%
12:00 +11°C° 0 mm 0 m/s 768 mmHg 55%
13:00 +12°C° 0 mm 0 m/s 768 mmHg 50%
14:00 +12°C° 0 mm 0 m/s 768 mmHg 50%
15:00 +13°C° 0 mm 1 m/s 768 mmHg 51%
16:00 +13°C° 0 mm 1 m/s 767 mmHg 51%
17:00 +12°C° 0 mm 1 m/s 767 mmHg 57%
18:00 +10°C° 0 mm 1 m/s 767 mmHg 63%
19:00 +9°C° 0 mm 1 m/s 767 mmHg 69%
20:00 +8°C° 0 mm 1 m/s 767 mmHg 72%
21:00 +7°C° 0 mm 1 m/s 767 mmHg 74%
22:00 +6°C° 0 mm 0 m/s 767 mmHg 77%
23:00 +6°C° 0 mm 0 m/s 767 mmHg 78%

3 Março, Quarta-feira

Tempo Temperatura Precipitação Vento Pressão Humidade
00:00 +6°C° 0 mm 1 m/s 767 mmHg 80%
01:00 +6°C° 0 mm 1 m/s 767 mmHg 81%
02:00 +5°C° 0 mm 1 m/s 767 mmHg 82%
03:00 +5°C° 0 mm 1 m/s 767 mmHg 83%
04:00 +5°C° 0 mm 1 m/s 766 mmHg 84%
05:00 +4°C° 0 mm 1 m/s 766 mmHg 85%
06:00 +4°C° 0 mm 1 m/s 766 mmHg 87%
07:00 +3°C° 0 mm 1 m/s 766 mmHg 88%
08:00 +5°C° 0 mm 1 m/s 766 mmHg 81%
09:00 +7°C° 0 mm 1 m/s 766 mmHg 75%
10:00 +9°C° 0 mm 1 m/s 766 mmHg 68%
11:00 +9°C° 0 mm 2 m/s 766 mmHg 64%
12:00 +10°C° 0 mm 2 m/s 766 mmHg 60%
13:00 +13°C° 0 mm 2 m/s 765 mmHg 57%
14:00 +13°C° 0 mm 2 m/s 765 mmHg 57%
15:00 +13°C° 0 mm 2 m/s 765 mmHg 58%
16:00 +13°C° 0 mm 1 m/s 764 mmHg 59%
17:00 +11°C° 0 mm 1 m/s 764 mmHg 66%
18:00 +10°C° 0 mm 1 m/s 764 mmHg 72%
19:00 +8°C° 0 mm 1 m/s 763 mmHg 79%
20:00 +8°C° 0 mm 1 m/s 763 mmHg 82%
21:00 +7°C° 0 mm 1 m/s 763 mmHg 84%
22:00 +7°C° 0 mm 1 m/s 763 mmHg 87%
23:00 +5°C° 0 mm 2 m/s 762 mmHg 88%

4 Março, Quinta-feira

Tempo Temperatura Precipitação Vento Pressão Humidade
00:00 +5°C° 0 mm 2 m/s 762 mmHg 89%
01:00 +5°C° 0 mm 2 m/s 761 mmHg 90%
02:00 +5°C° 0 mm 2 m/s 761 mmHg 91%
03:00 +4°C° 0 mm 2 m/s 760 mmHg 91%
04:00 +4°C° 0 mm 2 m/s 760 mmHg 92%
05:00 +4°C° 0 mm 2 m/s 760 mmHg 92%
06:00 +4°C° 0 mm 2 m/s 759 mmHg 92%
07:00 +5°C° 0 mm 1 m/s 759 mmHg 93%
08:00 +5°C° 0.1 mm 2 m/s 758 mmHg 90%
09:00 +6°C° 0.1 mm 2 m/s 758 mmHg 87%
10:00 +7°C° 0.1 mm 3 m/s 758 mmHg 84%
11:00 +8°C° 0.3 mm 3 m/s 757 mmHg 82%
12:00 +8°C° 0.3 mm 4 m/s 757 mmHg 81%
13:00 +10°C° 0.3 mm 4 m/s 757 mmHg 79%
14:00 +8°C° 0.4 mm 4 m/s 756 mmHg 81%
15:00 +8°C° 0.4 mm 4 m/s 756 mmHg 84%
16:00 +7°C° 0.4 mm 4 m/s 756 mmHg 86%
17:00 +6°C° 0.4 mm 4 m/s 756 mmHg 88%
18:00 +6°C° 0.4 mm 4 m/s 756 mmHg 89%
19:00 +5°C° 0.4 mm 4 m/s 756 mmHg 90%
20:00 +5°C° 0.2 mm 4 m/s 757 mmHg 90%
21:00 +5°C° 0.2 mm 3 m/s 757 mmHg 90%
22:00 +4°C° 0.2 mm 3 m/s 758 mmHg 90%
23:00 +4°C° 0 mm 3 m/s 758 mmHg 89%
Mostrar mais

Necessitamos do seu Consentimento

A Meteoprog e os seus Fornecedores de Serviços podem armazenar e aceder a dados pessoais como cookies, identificadores do dispositivo ou outras tecnologias semelhantes existentes no seu dispositivo e processar estes dados para personalizar conteúdos e anúncios, assim como funcionalidades nas redes sociais e análise de tráfego.

  • Armazenar e/ou aceder a informações no seu dispositivo

    Os cookies, identificadores do dispositivo ou outras informações podem ser armazenados ou acedidos no seu dispositivo, para os fins acima indicados.

  • Anúncios e conteúdos personalizados, medição de anúncios e conteúdos, dados sobre o público-alvo e desenvolvimento de produtos

    Os anúncios e os conteúdos podem ser personalizados com base num perfil. Podem ser adicionados dados adicionais para uma maior personalização dos anúncios e dos conteúdos. A eficácia dos anúncios e dos conteúdos pode ser medida. Podem ser obtidas informações sobre o público que visualizou os anúncios e os conteúdos. Estes dados podem ser usados para desenvolver ou melhorar sistemas, softwares ou a experiência do utilizador.

Ao clicar em "Eu concordo”, permitirá o uso de cookies, identificadores do dispositivo e web beacons mencionados ou outras tecnologias semelhantes. As configurações do navegador do seu dispositivo podem ser alteradas.

Para certos fins, podem ser invocados interesses legítimos ao invés de consentimento. Pode ler mais informação sobre este assunto na nossa Política de Privacidade e Cookies.